COSMOS 647

导读 | 豆包AI

COSMOS 647(宇宙647)是苏联(独联体,CIS)于1974年4月23日发射的人造卫星,属于苏联“宇宙”(COSMOS/Kosmos)系列卫星。该卫星运行在近地低轨道(LEO),轨道倾角为74.0度,截至2025年6月已在轨运行超18828天,每日绕地球约12.5圈,目前仍被识别为完整空间目标,未被标记为空间碎片,NORAD编号7271,国际标识1974-024G。宇宙系列卫星覆盖科研、导航与军事侦察等多类任务,该卫星是冷战时期苏联航天活动的组成部分。

基本信息
目录编号:
7271
目录名称:
COSMOS 647
国际标识:
1974-024G
轨道中心:
EARTH
卫星名称:
COSMOS 647
卫星全名:
--
卫星状态:
在轨 (已飞行19000 天)
发射日期:
1974-04-23 UTC
国别 :
俄罗斯(独联体) (CIS)
星等 :
--
轨道信息
数据来源 国际轨道数据
星历时间: 2026-04-30T23:09:39+0800
5小时前
查看轨道信息
半长轴: 7830.629km
偏心率: 0.0039577
轨道倾角: 74.018°
近地点辐角 244.976°
升交点赤经 236.798°
平近点角 126.554°
近地点: 1421.5km
远地点: 1483.484km
周期: 114.936分钟
每日圈数: 12.528752
详细信息
使用方式:
暂无
2D轨道图
3D轨道图
轨道高度分析图
轨道倾角分析图
轨道综合分析图
查看轨道综合分析图